QPF
0.00 0.00 0.00 0.00 0.00 0.00 0.00 0.00 0.00 0.00 0.00 0.00 0.00 0.00 0.00 0.00 0.00 0.00 0.00 0.00 0.00 0.00 0.00 0.00 0.00 0.00 0.01 0.01 0.00 0.00 0.00 0.00 0.00 0.00 0.01 0.01 0.01 0.01 0.01 0.01 0.00 0.00 0.01
0.00 0.00 0.00 0.00 0.00 0.00 0.00 0.00 0.00 0.00 0.00 0.00 0.00 0.00 0.00 0.00 0.00 0.00 0.00 0.00 0.00 0.00 0.00 0.00 0.00 0.00 0.00 0.00 0.00 0.00 0.00 0.00 0.01 0.01 0.02 0.02 0.02 0.02 0.02 0.01 0.00 0.00 0.01
0.00 0.00 0.00 0.00 0.00 0.00 0.00 0.00 0.00 0.00 0.00 0.00 0.00 0.00 0.00 0.00 0.00 0.00 0.00 0.00 0.00 0.00 0.00 0.00 0.00 0.00 0.00 0.00 0.00 0.01 0.01 0.01 0.01 0.02 0.01 0.01 0.02 0.03 0.03 0.02 0.01 0.01 0.01
0.00 0.00 0.00 0.00 0.00 0.00 0.00 0.00 0.00 0.00 0.00 0.00 0.00 0.00 0.00 0.00 0.00 0.00 0.00 0.00 0.00 0.00 0.00 0.00 0.00 0.00 0.00 0.00 0.00 0.01 0.01 0.01 0.01 0.01 0.00 0.01 0.01 0.03 0.02 0.01 0.01 0.00 0.00
0.00 0.00 0.00 0.00 0.00 0.00 0.00 0.00 0.00 0.00 0.00 0.00 0.00 0.00 0.00 0.00 0.00 0.00 0.00 0.00 0.00 0.00 0.00 0.00 0.00 0.00 0.00 0.00 0.00 0.00 0.00 0.01 0.01 0.01 0.00 0.00 0.01 0.02 0.01 0.01 0.00 0.00 0.00
0.00 0.00 0.00 0.00 0.00 0.00 0.00 0.00 0.00 0.00 0.00 0.00 0.00 0.00 0.00 0.00 0.00 0.00 0.00 0.00 0.00 0.00 0.00 0.00 0.00 0.00 0.00 0.00 0.00 0.01 0.01 0.01 0.01 0.01 0.00 0.00 0.01 0.01 0.01 0.01 0.01 0.00 0.00
0.01 0.00 0.00 0.00 0.00 0.00 0.00 0.00 0.00 0.00 0.00 0.00 0.00 0.00 0.00 0.00 0.00 0.00 0.00 0.00 0.00 0.00 0.00 0.00 0.00 0.00 0.00 0.00 0.01 0.01 0.01 0.01 0.01 0.01 0.00 0.00 0.01 0.01 0.01 0.01 0.01 0.01 0.01
0.03 0.01 0.00 0.00 0.00 0.00 0.00 0.00 0.00 0.00 0.00 0.00 0.00 0.00 0.00 0.00 0.00 0.00 0.00 0.00 0.00 0.00 0.00 0.00 0.00 0.00 0.00 0.00 0.00 0.00 0.01 0.00 0.00 0.00 0.00 0.00 0.01 0.01 0.01 0.01 0.01 0.01 0.01
0.04 0.01 0.00 0.00 0.00 0.00 0.00 0.00 0.00 0.00 0.01 0.00 0.00 0.00 0.00 0.00 0.00 0.01 0.01 0.01 0.00 0.00 0.00 0.00 0.00 0.00 0.00 0.00 0.00 0.00 0.01 0.01 0.00 0.00 0.00 0.00 0.01 0.02 0.02 0.01 0.01 0.01 0.01
0.03 0.02 0.01 0.01 0.01 0.00 0.01 0.01 0.01 0.01 0.01 0.01 0.00 0.00 0.00 0.00 0.01 0.01 0.01 0.01 0.00 0.00 0.00 0.00 0.00 0.00 0.00 0.00 0.00 0.01 0.01 0.00 0.00 0.00 0.00 0.01 0.01 0.02 0.03 0.03 0.01 0.01 0.01
0.05 0.04 0.03 0.01 0.02 0.02 0.02 0.02 0.02 0.01 0.01 0.01 0.01 0.01 0.01 0.00 0.01 0.01 0.01 0.01 0.01 0.01 0.01 0.00 0.00 0.00 0.00 0.00 0.00 0.01 0.01 0.00 0.00 0.01 0.00 0.01 0.02 0.03 0.04 0.04 0.03 0.02 0.02
0.04 0.03 0.03 0.02 0.02 0.02 0.02 0.02 0.02 0.01 0.01 0.01 0.01 0.01 0.00 0.00 0.00 0.00 0.00 0.01 0.01 0.01 0.01 0.01 0.01 0.00 0.00 0.00 0.00 0.00 0.00 0.00 0.00 0.01 0.00 0.01 0.03 0.04 0.05 0.05 0.04 0.03 0.03
0.06 0.03 0.03 0.03 0.03 0.02 0.02 0.02 0.02 0.02 0.02 0.02 0.02 0.01 0.01 0.01 0.00 0.00 0.00 0.00 0.01 0.01 0.01 0.00 0.00 0.00 0.00 0.00 0.00 0.01 0.00 0.00 0.01 0.01 0.01 0.01 0.03 0.06 0.08 0.07 0.06 0.06 0.05
0.09 0.06 0.04 0.05 0.06 0.05 0.04 0.03 0.02 0.02 0.02 0.01 0.01 0.01 0.01 0.01 0.02 0.03 0.03 0.02 0.01 0.01 0.01 0.00 0.00 0.01 0.01 0.01 0.01 0.01 0.01 0.01 0.01 0.01 0.01 0.01 0.03 0.07 0.10 0.09 0.09 0.09 0.08
0.10 0.08 0.06 0.07 0.06 0.06 0.06 0.04 0.03 0.02 0.02 0.02 0.02 0.03 0.03 0.03 0.03 0.03 0.03 0.03 0.03 0.03 0.02 0.02 0.01 0.01 0.02 0.02 0.02 0.02 0.02 0.02 0.02 0.02 0.02 0.03 0.04 0.06 0.09 0.11 0.11 0.11 0.10
0.13 0.09 0.06 0.06 0.05 0.06 0.07 0.06 0.06 0.05 0.05 0.04 0.04 0.04 0.03 0.03 0.03 0.03 0.03 0.05 0.04 0.05 0.05 0.05 0.04 0.03 0.03 0.03 0.03 0.03 0.02 0.01 0.02 0.03 0.04 0.05 0.05 0.05 0.08 0.11 0.13 0.14 0.14
0.20 0.13 0.08 0.07 0.09 0.13 0.13 0.10 0.07 0.07 0.06 0.05 0.05 0.05 0.03 0.03 0.03 0.04 0.06 0.06 0.05 0.06 0.07 0.06 0.05 0.06 0.05 0.04 0.03 0.02 0.02 0.02 0.03 0.05 0.04 0.04 0.05 0.06 0.10 0.12 0.13 0.15 0.17
0.27 0.18 0.14 0.11 0.13 0.16 0.16 0.14 0.10 0.10 0.10 0.09 0.09 0.09 0.09 0.09 0.09 0.09 0.09 0.09 0.09 0.08 0.08 0.08 0.08 0.07 0.06 0.05 0.04 0.04 0.04 0.04 0.04 0.04 0.04 0.04 0.05 0.06 0.09 0.12 0.12 0.12 0.13
0.19 0.19 0.19 0.18 0.20 0.24 0.25 0.24 0.21 0.20 0.20 0.20 0.19 0.19 0.17 0.16 0.17 0.16 0.16 0.14 0.13 0.12 0.11 0.11 0.10 0.09 0.08 0.07 0.06 0.05 0.04 0.04 0.03 0.03 0.04 0.06 0.05 0.05 0.07 0.09 0.10 0.12 0.16
0.15 0.22 0.28 0.27 0.26 0.30 0.33 0.33 0.30 0.29 0.29 0.30 0.30 0.28 0.24 0.25 0.24 0.22 0.19 0.17 0.15 0.15 0.13 0.13 0.13 0.11 0.09 0.08 0.06 0.05 0.04 0.03 0.03 0.03 0.04 0.04 0.05 0.06 0.08 0.09 0.10 0.13 0.17
0.16 0.27 0.32 0.33 0.31 0.36 0.41 0.40 0.40 0.39 0.37 0.34 0.35 0.35 0.34 0.33 0.31 0.28 0.25 0.21 0.19 0.16 0.13 0.13 0.12 0.10 0.08 0.07 0.06 0.04 0.03 0.02 0.02 0.02 0.03 0.04 0.05 0.07 0.08 0.09 0.08 0.08 0.09
0.20 0.21 0.22 0.32 0.40 0.46 0.54 0.56 0.45 0.41 0.40 0.40 0.43 0.44 0.42 0.40 0.36 0.34 0.30 0.25 0.20 0.18 0.15 0.13 0.11 0.09 0.08 0.07 0.06 0.05 0.03 0.02 0.02 0.02 0.02 0.02 0.03 0.04 0.04 0.05 0.05 0.06 0.06
0.18 0.16 0.19 0.31 0.48 0.52 0.62 0.71 0.65 0.51 0.43 0.40 0.39 0.38 0.37 0.35 0.34 0.30 0.25 0.20 0.17 0.16 0.12 0.10 0.10 0.10 0.10 0.09 0.08 0.07 0.04 0.02 0.02 0.02 0.01 0.01 0.01 0.01 0.02 0.02 0.04 0.06 0.06
0.14 0.15 0.19 0.31 0.44 0.53 0.61 0.68 0.70 0.62 0.49 0.39 0.33 0.30 0.26 0.23 0.22 0.19 0.17 0.16 0.16 0.16 0.13 0.11 0.11 0.12 0.11 0.09 0.08 0.07 0.06 0.04 0.03 0.02 0.01 0.01 0.01 0.01 0.02 0.02 0.03 0.04 0.05
0.14 0.15 0.17 0.24 0.32 0.38 0.42 0.52 0.58 0.57 0.50 0.40 0.29 0.22 0.20 0.20 0.19 0.17 0.15 0.15 0.14 0.12 0.10 0.09 0.08 0.08 0.08 0.08 0.07 0.07 0.07 0.05 0.04 0.03 0.03 0.02 0.02 0.02 0.02 0.02 0.02 0.03 0.04
0.16 0.16 0.15 0.17 0.25 0.29 0.29 0.36 0.49 0.48 0.43 0.38 0.30 0.22 0.18 0.16 0.16 0.16 0.14 0.12 0.11 0.09 0.08 0.07 0.07 0.06 0.06 0.05 0.05 0.04 0.04 0.03 0.03 0.03 0.03 0.02 0.02 0.01 0.01 0.02 0.02 0.02 0.03
MSLP
1011.10 1010.84 1010.83 1011.03 1011.36 1011.71 1012.01 1012.22 1012.32 1012.36 1012.39 1012.48 1012.68 1013.01 1013.44 1013.95 1014.45 1014.91 1015.26 1015.50 1015.65 1015.72 1015.77 1015.83 1015.91 1016.03 1016.18 1016.34 1016.51 1016.68 1016.84 1017.00 1017.18 1017.37 1017.57 1017.77 1017.97 1018.14 1018.29 1018.41 1018.51 1018.60 1018.72
1010.64 1010.53 1010.66 1011.00 1011.43 1011.87 1012.23 1012.47 1012.58 1012.63 1012.67 1012.78 1013.00 1013.35 1013.80 1014.30 1014.79 1015.21 1015.53 1015.74 1015.86 1015.92 1015.97 1016.04 1016.15 1016.28 1016.44 1016.60 1016.74 1016.87 1016.99 1017.12 1017.27 1017.45 1017.66 1017.88 1018.10 1018.29 1018.45 1018.58 1018.68 1018.78 1018.89
1010.09 1010.13 1010.43 1010.91 1011.48 1012.01 1012.44 1012.73 1012.89 1012.97 1013.04 1013.16 1013.40 1013.74 1014.18 1014.64 1015.08 1015.45 1015.71 1015.87 1015.96 1016.02 1016.09 1016.19 1016.32 1016.48 1016.65 1016.80 1016.91 1017.00 1017.08 1017.18 1017.30 1017.48 1017.70 1017.94 1018.18 1018.40 1018.57 1018.71 1018.82 1018.92 1019.04
1009.57 1009.78 1010.24 1010.86 1011.54 1012.18 1012.68 1013.03 1013.24 1013.35 1013.45 1013.60 1013.84 1014.17 1014.56 1014.97 1015.34 1015.63 1015.82 1015.93 1016.00 1016.06 1016.15 1016.28 1016.46 1016.65 1016.83 1016.97 1017.06 1017.12 1017.17 1017.23 1017.34 1017.51 1017.74 1017.99 1018.25 1018.48 1018.67 1018.80 1018.91 1019.02 1019.14
1009.21 1009.57 1010.16 1010.91 1011.68 1012.39 1012.95 1013.35 1013.59 1013.74 1013.86 1014.03 1014.26 1014.57 1014.92 1015.27 1015.56 1015.77 1015.89 1015.96 1016.01 1016.08 1016.20 1016.38 1016.60 1016.83 1017.02 1017.16 1017.24 1017.28 1017.30 1017.34 1017.43 1017.60 1017.82 1018.08 1018.34 1018.57 1018.75 1018.89 1018.99 1019.09 1019.22
1009.10 1009.58 1010.27 1011.08 1011.91 1012.64 1013.23 1013.64 1013.90 1014.08 1014.22 1014.40 1014.64 1014.93 1015.24 1015.53 1015.76 1015.91 1015.98 1016.01 1016.06 1016.14 1016.30 1016.52 1016.78 1017.04 1017.26 1017.41 1017.48 1017.50 1017.50 1017.52 1017.60 1017.76 1017.98 1018.23 1018.47 1018.68 1018.85 1018.96 1019.04 1019.14 1019.26
1009.24 1009.80 1010.54 1011.38 1012.20 1012.92 1013.48 1013.88 1014.14 1014.32 1014.48 1014.68 1014.93 1015.22 1015.52 1015.77 1015.95 1016.06 1016.10 1016.12 1016.16 1016.27 1016.46 1016.72 1017.02 1017.31 1017.55 1017.70 1017.77 1017.78 1017.77 1017.78 1017.85 1017.98 1018.18 1018.40 1018.62 1018.80 1018.93 1019.02 1019.08 1019.15 1019.27
1009.57 1010.17 1010.92 1011.73 1012.50 1013.16 1013.67 1014.02 1014.27 1014.45 1014.64 1014.86 1015.14 1015.44 1015.74 1015.99 1016.16 1016.24 1016.27 1016.29 1016.34 1016.47 1016.68 1016.97 1017.30 1017.61 1017.85 1018.01 1018.08 1018.09 1018.06 1018.06 1018.10 1018.21 1018.38 1018.56 1018.74 1018.88 1018.97 1019.03 1019.07 1019.13 1019.24
1009.97 1010.58 1011.30 1012.05 1012.75 1013.33 1013.77 1014.08 1014.30 1014.49 1014.70 1014.96 1015.27 1015.60 1015.92 1016.18 1016.35 1016.44 1016.48 1016.50 1016.56 1016.70 1016.93 1017.23 1017.56 1017.88 1018.13 1018.28 1018.35 1018.34 1018.30 1018.28 1018.30 1018.38 1018.50 1018.64 1018.77 1018.87 1018.93 1018.95 1018.98 1019.04 1019.16
1010.31 1010.92 1011.60 1012.29 1012.91 1013.41 1013.78 1014.05 1014.26 1014.45 1014.69 1014.99 1015.35 1015.72 1016.07 1016.35 1016.54 1016.64 1016.68 1016.71 1016.78 1016.92 1017.15 1017.45 1017.77 1018.07 1018.31 1018.45 1018.50 1018.48 1018.43 1018.38 1018.37 1018.41 1018.48 1018.58 1018.66 1018.72 1018.76 1018.77 1018.80 1018.87 1019.02
1010.51 1011.11 1011.76 1012.39 1012.95 1013.40 1013.73 1013.97 1014.18 1014.40 1014.67 1015.01 1015.40 1015.81 1016.19 1016.49 1016.69 1016.81 1016.86 1016.89 1016.96 1017.10 1017.31 1017.59 1017.89 1018.17 1018.38 1018.50 1018.53 1018.49 1018.42 1018.34 1018.29 1018.28 1018.31 1018.36 1018.41 1018.44 1018.46 1018.48 1018.52 1018.62 1018.79
1010.51 1011.12 1011.75 1012.36 1012.89 1013.31 1013.64 1013.89 1014.12 1014.36 1014.67 1015.04 1015.46 1015.89 1016.28 1016.59 1016.80 1016.92 1016.98 1017.02 1017.09 1017.22 1017.41 1017.66 1017.92 1018.17 1018.35 1018.44 1018.45 1018.38 1018.28 1018.17 1018.09 1018.04 1018.02 1018.03 1018.04 1018.06 1018.07 1018.10 1018.17 1018.30 1018.50
1010.37 1010.99 1011.63 1012.24 1012.77 1013.20 1013.54 1013.83 1014.09 1014.37 1014.71 1015.10 1015.52 1015.95 1016.34 1016.64 1016.86 1016.99 1017.05 1017.10 1017.17 1017.29 1017.46 1017.68 1017.91 1018.12 1018.26 1018.32 1018.30 1018.21 1018.08 1017.95 1017.83 1017.75 1017.69 1017.67 1017.65 1017.65 1017.67 1017.71 1017.79 1017.94 1018.16
1010.16 1010.79 1011.44 1012.07 1012.62 1013.09 1013.48 1013.80 1014.11 1014.43 1014.78 1015.17 1015.59 1016.00 1016.36 1016.66 1016.87 1017.01 1017.09 1017.15 1017.23 1017.35 1017.51 1017.70 1017.90 1018.07 1018.17 1018.21 1018.16 1018.06 1017.91 1017.76 1017.62 1017.51 1017.43 1017.38 1017.35 1017.33 1017.34 1017.37 1017.46 1017.60 1017.80
1009.98 1010.61 1011.28 1011.92 1012.50 1013.01 1013.44 1013.82 1014.16 1014.51 1014.87 1015.25 1015.65 1016.02 1016.36 1016.64 1016.85 1017.00 1017.11 1017.21 1017.31 1017.44 1017.60 1017.77 1017.94 1018.07 1018.15 1018.16 1018.10 1017.98 1017.83 1017.68 1017.53 1017.41 1017.32 1017.26 1017.21 1017.18 1017.17 1017.19 1017.24 1017.34 1017.49
1009.92 1010.54 1011.19 1011.83 1012.42 1012.96 1013.43 1013.85 1014.23 1014.59 1014.96 1015.32 1015.68 1016.03 1016.34 1016.61 1016.83 1017.01 1017.16 1017.29 1017.44 1017.59 1017.75 1017.91 1018.06 1018.16 1018.22 1018.21 1018.14 1018.03 1017.89 1017.76 1017.63 1017.52 1017.44 1017.37 1017.32 1017.27 1017.23 1017.20 1017.20 1017.22 1017.28
1010.04 1010.60 1011.20 1011.81 1012.40 1012.94 1013.43 1013.88 1014.28 1014.65 1015.01 1015.36 1015.69 1016.01 1016.32 1016.59 1016.84 1017.05 1017.25 1017.44 1017.63 1017.81 1017.98 1018.13 1018.25 1018.33 1018.36 1018.34 1018.28 1018.19 1018.09 1017.98 1017.90 1017.82 1017.77 1017.72 1017.66 1017.60 1017.53 1017.44 1017.35 1017.28 1017.22
1010.33 1010.81 1011.33 1011.87 1012.41 1012.93 1013.42 1013.87 1014.29 1014.67 1015.03 1015.37 1015.69 1016.01 1016.32 1016.61 1016.90 1017.17 1017.42 1017.67 1017.89 1018.09 1018.27 1018.40 1018.50 1018.56 1018.57 1018.54 1018.49 1018.43 1018.37 1018.32 1018.29 1018.27 1018.25 1018.23 1018.19 1018.12 1018.01 1017.87 1017.70 1017.52 1017.34
1010.77 1011.13 1011.53 1011.98 1012.44 1012.92 1013.38 1013.83 1014.26 1014.65 1015.03 1015.38 1015.72 1016.05 1016.39 1016.72 1017.05 1017.38 1017.69 1017.97 1018.23 1018.44 1018.60 1018.72 1018.78 1018.81 1018.80 1018.77 1018.74 1018.72 1018.71 1018.72 1018.75 1018.78 1018.82 1018.83 1018.81 1018.74 1018.62 1018.43 1018.20 1017.93 1017.65
1011.29 1011.52 1011.79 1012.11 1012.48 1012.89 1013.32 1013.76 1014.20 1014.62 1015.03 1015.42 1015.80 1016.17 1016.55 1016.94 1017.32 1017.70 1018.05 1018.36 1018.63 1018.83 1018.97 1019.05 1019.08 1019.08 1019.05 1019.02 1019.00 1019.02 1019.06 1019.13 1019.21 1019.31 1019.39 1019.44 1019.45 1019.39 1019.26 1019.06 1018.79 1018.47 1018.12
1011.86 1011.94 1012.06 1012.26 1012.52 1012.86 1013.25 1013.69 1014.15 1014.61 1015.07 1015.52 1015.96 1016.41 1016.85 1017.29 1017.73 1018.14 1018.52 1018.85 1019.10 1019.28 1019.39 1019.43 1019.41 1019.37 1019.33 1019.30 1019.31 1019.35 1019.43 1019.54 1019.67 1019.81 1019.93 1020.01 1020.03 1019.99 1019.88 1019.68 1019.41 1019.08 1018.72
1012.44 1012.38 1012.36 1012.43 1012.59 1012.85 1013.21 1013.64 1014.13 1014.65 1015.19 1015.72 1016.25 1016.77 1017.28 1017.79 1018.27 1018.71 1019.10 1019.42 1019.65 1019.79 1019.86 1019.85 1019.81 1019.74 1019.69 1019.67 1019.68 1019.75 1019.86 1020.00 1020.15 1020.30 1020.42 1020.51 1020.55 1020.52 1020.43 1020.26 1020.02 1019.72 1019.39
1013.03 1012.84 1012.70 1012.64 1012.71 1012.91 1013.24 1013.68 1014.20 1014.79 1015.40 1016.03 1016.65 1017.26 1017.85 1018.41 1018.92 1019.39 1019.77 1020.07 1020.27 1020.37 1020.40 1020.36 1020.29 1020.22 1020.17 1020.16 1020.20 1020.28 1020.40 1020.54 1020.68 1020.81 1020.92 1020.99 1021.01 1020.99 1020.91 1020.77 1020.58 1020.35 1020.07
1013.65 1013.36 1013.11 1012.96 1012.94 1013.08 1013.39 1013.84 1014.40 1015.05 1015.75 1016.46 1017.17 1017.86 1018.52 1019.13 1019.67 1020.14 1020.51 1020.78 1020.94 1021.02 1021.02 1020.97 1020.90 1020.84 1020.80 1020.82 1020.88 1020.97 1021.08 1021.21 1021.32 1021.40 1021.46 1021.48 1021.47 1021.43 1021.35 1021.24 1021.09 1020.91 1020.71
1014.33 1013.97 1013.64 1013.41 1013.33 1013.43 1013.71 1014.16 1014.76 1015.46 1016.22 1017.02 1017.80 1018.56 1019.27 1019.91 1020.47 1020.93 1021.28 1021.52 1021.66 1021.71 1021.69 1021.65 1021.59 1021.56 1021.57 1021.62 1021.71 1021.81 1021.92 1022.02 1022.08 1022.10 1022.08 1022.04 1021.97 1021.88 1021.78 1021.68 1021.56 1021.43 1021.27
1015.12 1014.72 1014.34 1014.06 1013.93 1013.99 1014.25 1014.70 1015.31 1016.04 1016.85 1017.69 1018.53 1019.33 1020.06 1020.72 1021.27 1021.72 1022.04 1022.25 1022.37 1022.40 1022.39 1022.36 1022.35 1022.36 1022.42 1022.51 1022.64 1022.76 1022.86 1022.93 1022.94 1022.89 1022.80 1022.67 1022.53 1022.38 1022.25 1022.12 1022.00 1021.88 1021.74
Thickness
5790 5791 5787 5784 5782 5780 5781 5781 5781 5780 5778 5777 5775 5773 5771 5769 5767 5765 5764 5762 5761 5760 5759 5757 5756 5755 5754 5752 5751 5749 5747 5746 5744 5742 5741 5739 5737 5736 5734 5732 5731 5729 5727
5794 5789 5785 5782 5779 5778 5777 5777 5776 5775 5774 5773 5771 5769 5767 5766 5764 5762 5761 5760 5758 5757 5756 5754 5753 5752 5750 5749 5748 5746 5745 5743 5742 5740 5739 5737 5735 5733 5732 5730 5728 5727 5725
5794 5788 5783 5779 5776 5774 5773 5773 5772 5771 5769 5768 5767 5766 5764 5763 5761 5759 5758 5756 5755 5754 5753 5752 5750 5749 5748 5746 5745 5744 5742 5741 5740 5738 5737 5735 5733 5731 5730 5728 5726 5725 5723
5792 5787 5781 5777 5774 5772 5770 5769 5768 5766 5765 5763 5762 5761 5760 5759 5758 5756 5755 5753 5752 5751 5750 5749 5747 5746 5745 5743 5742 5741 5740 5738 5737 5736 5734 5732 5731 5729 5728 5726 5724 5722 5721
5788 5783 5779 5775 5771 5769 5767 5766 5764 5763 5761 5759 5758 5757 5756 5755 5754 5753 5751 5750 5749 5748 5747 5745 5744 5743 5742 5741 5740 5739 5738 5736 5735 5733 5732 5731 5729 5728 5726 5724 5722 5720 5718
5784 5779 5775 5771 5768 5765 5763 5762 5761 5759 5757 5756 5754 5753 5752 5751 5750 5749 5747 5746 5745 5744 5743 5742 5741 5740 5739 5738 5737 5736 5735 5734 5733 5732 5730 5729 5727 5726 5724 5722 5720 5718 5716
5779 5775 5771 5768 5765 5763 5760 5758 5757 5755 5754 5752 5751 5749 5748 5748 5746 5745 5744 5743 5742 5741 5740 5739 5738 5737 5736 5735 5734 5734 5733 5733 5732 5730 5729 5727 5725 5724 5722 5720 5718 5716 5714
5775 5771 5767 5765 5762 5760 5757 5755 5754 5752 5750 5748 5747 5746 5745 5744 5743 5742 5740 5739 5738 5738 5737 5736 5735 5734 5734 5733 5732 5731 5731 5731 5730 5729 5727 5726 5724 5722 5720 5718 5717 5715 5713
5772 5767 5764 5761 5759 5756 5754 5752 5750 5748 5746 5745 5744 5742 5741 5740 5740 5739 5737 5736 5735 5735 5734 5733 5732 5732 5731 5731 5730 5729 5729 5729 5728 5727 5726 5724 5723 5720 5719 5717 5715 5713 5712
5767 5763 5760 5758 5756 5753 5751 5749 5747 5745 5743 5742 5740 5739 5738 5737 5736 5735 5734 5733 5733 5732 5731 5730 5729 5729 5729 5728 5728 5727 5727 5727 5726 5725 5724 5723 5721 5719 5717 5715 5714 5712 5710
5762 5759 5756 5755 5753 5751 5748 5746 5744 5742 5740 5738 5737 5736 5735 5734 5733 5732 5731 5730 5730 5729 5728 5727 5727 5726 5726 5726 5725 5725 5725 5724 5724 5723 5722 5721 5719 5718 5716 5714 5712 5710 5709
5758 5755 5753 5752 5751 5748 5745 5743 5741 5739 5737 5735 5734 5733 5732 5731 5730 5729 5728 5727 5727 5726 5725 5725 5724 5724 5724 5724 5723 5723 5722 5722 5721 5721 5720 5719 5718 5716 5714 5712 5710 5708 5707
5757 5754 5751 5750 5748 5746 5743 5741 5739 5737 5735 5733 5731 5730 5729 5728 5727 5726 5725 5724 5724 5723 5723 5722 5722 5721 5721 5721 5721 5720 5720 5719 5719 5718 5718 5717 5716 5714 5712 5710 5708 5707 5705
5754 5751 5749 5747 5745 5743 5741 5739 5737 5735 5733 5731 5730 5728 5727 5725 5724 5723 5722 5721 5720 5720 5720 5719 5719 5718 5718 5718 5718 5718 5718 5717 5716 5716 5715 5714 5713 5711 5710 5708 5706 5704 5702
5749 5747 5745 5744 5742 5740 5738 5737 5735 5733 5731 5730 5728 5726 5725 5722 5721 5720 5719 5718 5717 5717 5716 5716 5716 5715 5715 5715 5715 5715 5715 5714 5713 5712 5712 5711 5710 5709 5707 5705 5703 5701 5700
5745 5744 5742 5740 5739 5737 5735 5733 5732 5730 5728 5727 5725 5724 5722 5720 5718 5717 5716 5716 5715 5714 5713 5713 5712 5712 5711 5711 5711 5710 5710 5709 5708 5707 5707 5706 5705 5704 5703 5701 5700 5698 5696
5741 5740 5738 5737 5735 5733 5731 5729 5728 5726 5725 5723 5721 5720 5719 5717 5715 5713 5713 5712 5711 5711 5710 5709 5708 5707 5707 5706 5705 5705 5704 5703 5703 5702 5701 5700 5699 5698 5697 5696 5695 5693 5691
5737 5736 5735 5734 5731 5728 5726 5724 5723 5721 5720 5718 5717 5715 5714 5713 5711 5710 5709 5708 5707 5707 5706 5704 5703 5702 5700 5699 5698 5697 5697 5696 5696 5695 5693 5693 5692 5691 5690 5690 5688 5687 5685
5732 5731 5730 5729 5726 5723 5721 5719 5717 5715 5714 5712 5711 5710 5709 5708 5706 5705 5704 5703 5702 5701 5700 5699 5697 5696 5694 5692 5691 5689 5689 5688 5687 5686 5685 5684 5683 5683 5682 5681 5680 5679 5677
5724 5724 5723 5722 5720 5718 5716 5713 5711 5709 5706 5705 5704 5704 5703 5702 5700 5699 5698 5697 5696 5695 5694 5693 5690 5689 5687 5686 5684 5681 5679 5678 5677 5677 5676 5675 5674 5673 5672 5671 5670 5669 5668
5715 5715 5714 5712 5711 5710 5709 5707 5704 5701 5699 5697 5696 5696 5696 5696 5694 5693 5691 5690 5689 5688 5687 5687 5685 5682 5679 5677 5676 5672 5670 5669 5668 5666 5666 5665 5664 5663 5662 5661 5660 5659 5657
5706 5705 5705 5705 5703 5703 5703 5701 5698 5694 5690 5689 5688 5687 5686 5687 5687 5685 5684 5683 5682 5681 5680 5680 5679 5675 5671 5670 5669 5666 5663 5660 5658 5657 5656 5655 5653 5652 5651 5649 5648 5647 5645
5695 5696 5696 5697 5697 5697 5695 5693 5690 5685 5682 5679 5678 5677 5676 5677 5677 5676 5676 5675 5674 5673 5672 5671 5671 5669 5665 5662 5661 5661 5658 5655 5650 5647 5645 5643 5642 5641 5639 5638 5636 5634 5632
5684 5686 5687 5689 5689 5688 5687 5686 5683 5678 5673 5669 5668 5666 5664 5665 5666 5666 5667 5666 5665 5664 5663 5662 5661 5660 5659 5655 5652 5651 5650 5649 5644 5639 5635 5632 5631 5629 5627 5626 5623 5621 5619
5673 5676 5678 5680 5680 5679 5679 5678 5675 5670 5664 5660 5659 5657 5654 5654 5655 5656 5656 5656 5654 5653 5652 5652 5650 5650 5649 5646 5644 5641 5640 5637 5635 5632 5625 5621 5619 5616 5614 5612 5610 5608 5606
5663 5665 5668 5670 5670 5670 5670 5668 5666 5661 5656 5653 5650 5647 5644 5643 5642 5643 5644 5644 5643 5642 5641 5640 5639 5637 5635 5634 5632 5630 5628 5625 5622 5620 5615 5609 5606 5603 5601 5599 5597 5595 5593